Time,TemperatureF,DewpointF,PressureIn,WindDirection,WindDirectionDegrees,WindSpeedMPH,WindSpeedGustMPH,Humidity,HourlyPrecipIn,Conditions,Clouds,dailyrainin,SoftwareType,DateUTC
2013-02-07 00:00:00,11.5,8.4,30.42,WSW,251,0.0,0.0,87,0.00,,,0.00,WeatherDisplay:10.37,2013-02-07 05:00:00,
2013-02-07 00:01:00,11.5,8.6,30.42,WSW,252,0.0,0.0,88,0.00,,,0.00,WeatherDisplay:10.37,2013-02-07 05:01:00,
2013-02-07 00:06:00,11.5,8.6,30.42,WSW,250,0.0,0.0,88,0.00,,,0.00,WeatherDisplay:10.37,2013-02-07 05:06:00,
2013-02-07 00:11:00,11.3,8.4,30.41,WSW,252,0.0,0.0,88,0.00,,,0.00,WeatherDisplay:10.37,2013-02-07 05:11:00,
2013-02-07 00:16:00,11.1,8.2,30.41,WSW,252,0.0,0.0,88,0.00,,,0.00,WeatherDisplay:10.37,2013-02-07 05:16:00,
2013-02-07 00:21:00,11.4,8.8,30.41,WSW,252,0.0,0.0,89,0.00,,,0.00,WeatherDisplay:10.37,2013-02-07 05:21:00,
2013-02-07 00:26:00,11.6,9.0,30.41,WSW,252,0.0,0.0,89,0.00,,,0.00,WeatherDisplay:10.37,2013-02-07 05:26:00,
2013-02-07 00:31:00,11.7,8.8,30.41,WSW,252,0.0,0.0,88,0.00,,,0.00,WeatherDisplay:10.37,2013-02-07 05:31:00,
2013-02-07 00:36:00,11.4,8.3,30.41,WSW,250,0.0,0.0,87,0.00,,,0.00,WeatherDisplay:10.37,2013-02-07 05:36:00,
2013-02-07 00:41:00,11.1,8.0,30.41,WSW,252,0.0,0.0,87,0.00,,,0.00,WeatherDisplay:10.37,2013-02-07 05:41:00,
2013-02-07 00:46:00,11.3,8.7,30.41,WSW,251,0.0,0.0,89,0.00,,,0.00,WeatherDisplay:10.37,2013-02-07 05:46:00,
2013-02-07 00:51:00,11.7,8.8,30.41,WSW,251,0.0,0.0,88,0.00,,,0.00,WeatherDisplay:10.37,2013-02-07 05:51:00,
2013-02-07 00:56:00,11.6,8.5,30.41,WSW,252,0.0,0.0,87,0.00,,,0.00,WeatherDisplay:10.37,2013-02-07 05:56:00,
2013-02-07 01:01:00,11.2,8.1,30.41,WSW,252,0.0,0.0,87,0.00,,,0.00,WeatherDisplay:10.37,2013-02-07 06:01:00,
2013-02-07 01:06:00,11.1,8.2,30.41,WSW,252,0.0,0.0,88,0.00,,,0.00,WeatherDisplay:10.37,2013-02-07 06:06:00,
2013-02-07 01:11:00,11.2,8.3,30.40,WSW,252,0.0,0.0,88,0.00,,,0.00,WeatherDisplay:10.37,2013-02-07 06:11:00,
2013-02-07 01:17:00,11.0,7.9,30.40,WSW,250,0.0,0.0,87,0.00,,,0.00,WeatherDisplay:10.37,2013-02-07 06:17:00,
2013-02-07 01:22:00,11.0,8.1,30.40,WSW,252,0.0,0.0,88,0.00,,,0.00,WeatherDisplay:10.37,2013-02-07 06:22:00,
2013-02-07 01:27:00,11.3,8.4,30.41,WSW,251,0.0,0.0,88,0.00,,,0.00,WeatherDisplay:10.37,2013-02-07 06:27:00,
2013-02-07 01:32:00,11.3,8.2,30.41,WSW,250,0.0,0.0,87,0.00,,,0.00,WeatherDisplay:10.37,2013-02-07 06:32:00,
2013-02-07 01:37:00,10.8,7.4,30.42,WSW,250,0.0,0.0,86,0.00,,,0.00,WeatherDisplay:10.37,2013-02-07 06:37:00,
2013-02-07 01:42:00,10.4,7.3,30.42,WSW,252,0.0,0.0,87,0.00,,,0.00,WeatherDisplay:10.37,2013-02-07 06:42:00,
2013-02-07 01:47:00,10.0,6.9,30.42,WSW,250,0.0,0.0,87,0.00,,,0.00,WeatherDisplay:10.37,2013-02-07 06:47:00,
2013-02-07 01:52:00,9.7,6.6,30.43,WSW,250,0.0,0.0,87,0.00,,,0.00,WeatherDisplay:10.37,2013-02-07 06:52:00,
2013-02-07 01:57:00,9.4,6.3,30.43,WSW,250,0.0,0.0,87,0.00,,,0.00,WeatherDisplay:10.37,2013-02-07 06:57:00,
2013-02-07 02:02:00,9.4,6.6,30.43,WSW,250,0.0,0.0,88,0.00,,,0.00,WeatherDisplay:10.37,2013-02-07 07:02:00,
2013-02-07 02:07:00,9.6,7.0,30.43,WSW,250,0.0,0.0,89,0.00,,,0.00,WeatherDisplay:10.37,2013-02-07 07:07:00,
2013-02-07 02:12:00,9.7,7.1,30.43,WSW,250,0.0,0.0,89,0.00,,,0.00,WeatherDisplay:10.37,2013-02-07 07:12:00,
2013-02-07 02:17:00,10.1,7.5,30.44,WSW,250,0.0,0.0,89,0.00,,,0.00,WeatherDisplay:10.37,2013-02-07 07:17:00,
2013-02-07 02:22:00,10.4,7.8,30.44,WSW,250,0.0,0.0,89,0.00,,,0.00,WeatherDisplay:10.37,2013-02-07 07:22:00,
2013-02-07 02:27:00,10.7,7.8,30.43,WSW,250,0.0,0.0,88,0.00,,,0.00,WeatherDisplay:10.37,2013-02-07 07:27:00,
2013-02-07 02:32:00,10.7,7.8,30.44,WSW,250,0.0,0.0,88,0.00,,,0.00,WeatherDisplay:10.37,2013-02-07 07:32:00,
2013-02-07 02:37:00,10.7,7.8,30.43,WSW,250,0.0,0.0,88,0.00,,,0.00,WeatherDisplay:10.37,2013-02-07 07:37:00,
2013-02-07 02:42:00,10.7,7.8,30.43,WSW,250,0.0,0.0,88,0.00,,,0.00,WeatherDisplay:10.37,2013-02-07 07:42:00,
2013-02-07 02:47:00,10.8,7.9,30.43,WSW,250,0.0,0.0,88,0.00,,,0.00,WeatherDisplay:10.37,2013-02-07 07:47:00,
2013-02-07 02:52:00,11.1,8.5,30.43,WSW,250,0.0,0.0,89,0.00,,,0.00,WeatherDisplay:10.37,2013-02-07 07:52:00,
2013-02-07 02:57:00,11.4,8.8,30.44,WSW,251,0.0,0.0,89,0.00,,,0.00,WeatherDisplay:10.37,2013-02-07 07:57:00,
2013-02-07 03:02:00,11.5,8.6,30.44,WSW,250,0.0,0.0,88,0.00,,,0.00,WeatherDisplay:10.37,2013-02-07 08:02:00,
2013-02-07 03:07:00,11.4,8.5,30.43,WSW,251,0.0,0.0,88,0.00,,,0.00,WeatherDisplay:10.37,2013-02-07 08:07:00,
2013-02-07 03:12:00,11.5,8.6,30.43,WSW,252,0.0,0.0,88,0.00,,,0.00,WeatherDisplay:10.37,2013-02-07 08:12:00,
2013-02-07 03:17:00,11.6,8.7,30.43,WSW,250,0.0,0.0,88,0.00,,,0.00,WeatherDisplay:10.37,2013-02-07 08:17:00,
2013-02-07 03:22:00,11.5,8.6,30.43,WSW,250,0.0,0.0,88,0.00,,,0.00,WeatherDisplay:10.37,2013-02-07 08:22:00,
2013-02-07 03:27:00,11.6,8.7,30.43,WSW,250,0.0,0.0,88,0.00,,,0.00,WeatherDisplay:10.37,2013-02-07 08:27:00,
2013-02-07 03:32:00,11.7,8.8,30.42,WSW,250,0.0,0.0,88,0.00,,,0.00,WeatherDisplay:10.37,2013-02-07 08:32:00,
2013-02-07 03:37:00,12.0,9.1,30.42,WSW,250,0.0,0.0,88,0.00,,,0.00,WeatherDisplay:10.37,2013-02-07 08:37:00,
2013-02-07 03:42:00,12.1,9.2,30.43,WSW,250,0.0,0.0,88,0.00,,,0.00,WeatherDisplay:10.37,2013-02-07 08:42:00,
2013-02-07 03:47:00,12.3,9.4,30.43,WSW,250,0.0,0.0,88,0.00,,,0.00,WeatherDisplay:10.37,2013-02-07 08:47:00,
2013-02-07 03:52:00,12.4,9.5,30.43,WSW,250,0.0,0.0,88,0.00,,,0.00,WeatherDisplay:10.37,2013-02-07 08:52:00,
2013-02-07 03:57:00,12.7,10.1,30.44,WSW,250,0.0,0.0,89,0.00,,,0.00,WeatherDisplay:10.37,2013-02-07 08:57:00,
2013-02-07 04:02:00,12.9,10.0,30.43,WSW,250,0.0,0.0,88,0.00,,,0.00,WeatherDisplay:10.37,2013-02-07 09:02:00,
2013-02-07 04:07:00,13.2,10.3,30.43,WSW,250,0.0,0.0,88,0.00,,,0.00,WeatherDisplay:10.37,2013-02-07 09:07:00,
2013-02-07 04:12:00,13.4,10.5,30.43,WSW,250,0.0,0.0,88,0.00,,,0.00,WeatherDisplay:10.37,2013-02-07 09:12:00,
2013-02-07 04:17:00,13.7,10.5,30.44,WSW,250,0.0,0.0,87,0.00,,,0.00,WeatherDisplay:10.37,2013-02-07 09:17:00,
2013-02-07 04:22:00,13.8,10.6,30.44,WSW,250,0.0,0.0,87,0.00,,,0.00,WeatherDisplay:10.37,2013-02-07 09:22:00,
2013-02-07 04:27:00,13.6,10.5,30.44,WSW,250,0.0,0.0,87,0.00,,,0.00,WeatherDisplay:10.37,2013-02-07 09:27:00,
2013-02-07 04:32:00,13.5,10.4,30.44,WSW,250,0.0,0.0,87,0.00,,,0.00,WeatherDisplay:10.37,2013-02-07 09:32:00,
2013-02-07 04:37:00,13.4,10.3,30.44,WSW,250,0.0,0.0,87,0.00,,,0.00,WeatherDisplay:10.37,2013-02-07 09:37:00,
2013-02-07 04:42:00,13.3,10.4,30.44,WSW,250,0.0,0.0,88,0.00,,,0.00,WeatherDisplay:10.37,2013-02-07 09:42:00,
2013-02-07 04:47:00,13.3,10.4,30.44,WSW,250,0.0,0.0,88,0.00,,,0.00,WeatherDisplay:10.37,2013-02-07 09:47:00,
2013-02-07 04:52:00,13.3,10.4,30.44,WSW,250,0.0,0.0,88,0.00,,,0.00,WeatherDisplay:10.37,2013-02-07 09:52:00,
2013-02-07 04:57:00,13.1,10.2,30.45,WSW,250,0.0,0.0,88,0.00,,,0.00,WeatherDisplay:10.37,2013-02-07 09:57:00,
2013-02-07 05:02:00,13.0,10.1,30.45,WSW,250,0.0,0.0,88,0.00,,,0.00,WeatherDisplay:10.37,2013-02-07 10:02:00,
2013-02-07 05:07:00,13.0,10.1,30.45,WSW,250,0.0,0.0,88,0.00,,,0.00,WeatherDisplay:10.37,2013-02-07 10:07:00,
2013-02-07 05:12:00,13.1,10.2,30.46,WSW,250,0.0,0.0,88,0.00,,,0.00,WeatherDisplay:10.37,2013-02-07 10:12:00,
2013-02-07 05:17:00,13.3,10.4,30.47,WSW,250,0.0,0.0,88,0.00,,,0.00,WeatherDisplay:10.37,2013-02-07 10:17:00,
2013-02-07 05:22:00,13.7,11.1,30.47,WSW,250,0.0,0.0,89,0.00,,,0.00,WeatherDisplay:10.37,2013-02-07 10:22:00,
2013-02-07 05:28:00,13.9,11.3,30.47,WSW,250,0.0,0.0,89,0.00,,,0.00,WeatherDisplay:10.37,2013-02-07 10:28:00,
2013-02-07 05:33:00,14.1,11.2,30.47,WSW,250,0.0,0.0,88,0.00,,,0.00,WeatherDisplay:10.37,2013-02-07 10:33:00,
2013-02-07 05:38:00,14.2,11.3,30.47,WSW,250,0.0,0.0,88,0.00,,,0.00,WeatherDisplay:10.37,2013-02-07 10:38:00,
2013-02-07 05:43:00,14.3,11.4,30.47,WSW,250,0.0,0.0,88,0.00,,,0.00,WeatherDisplay:10.37,2013-02-07 10:43:00,
2013-02-07 05:48:00,14.4,11.5,30.47,WSW,250,0.0,0.0,88,0.00,,,0.00,WeatherDisplay:10.37,2013-02-07 10:48:00,
2013-02-07 05:53:00,14.5,11.9,30.47,WSW,250,0.0,0.0,89,0.00,,,0.00,WeatherDisplay:10.37,2013-02-07 10:53:00,
2013-02-07 05:58:00,14.6,11.7,30.47,WSW,250,0.0,0.0,88,0.00,,,0.00,WeatherDisplay:10.37,2013-02-07 10:58:00,
2013-02-07 06:03:00,14.7,11.8,30.46,WSW,250,0.0,0.0,88,0.00,,,0.00,WeatherDisplay:10.37,2013-02-07 11:03:00,
2013-02-07 06:08:00,14.7,11.8,30.46,SE,132,0.0,0.0,88,0.00,,,0.00,WeatherDisplay:10.37,2013-02-07 11:08:00,
2013-02-07 06:13:00,14.8,11.9,30.46,ESE,122,0.0,0.0,88,0.00,,,0.00,WeatherDisplay:10.37,2013-02-07 11:13:00,
2013-02-07 06:18:00,14.9,12.0,30.46,ESE,122,0.0,0.0,88,0.00,,,0.00,WeatherDisplay:10.37,2013-02-07 11:18:00,
2013-02-07 06:23:00,14.9,11.7,30.46,ESE,122,0.0,0.0,87,0.00,,,0.00,WeatherDisplay:10.37,2013-02-07 11:23:00,
2013-02-07 06:28:00,15.0,11.8,30.46,ESE,123,0.0,0.0,87,0.00,,,0.00,WeatherDisplay:10.37,2013-02-07 11:28:00,
2013-02-07 06:33:00,15.1,11.7,30.46,ESE,122,0.0,0.0,86,0.00,,,0.00,WeatherDisplay:10.37,2013-02-07 11:33:00,
2013-02-07 06:38:00,15.1,11.4,30.47,ESE,122,0.0,0.0,85,0.00,,,0.00,WeatherDisplay:10.37,2013-02-07 11:38:00,
2013-02-07 06:43:00,15.2,11.2,30.47,ESE,122,0.0,0.0,84,0.00,,,0.00,WeatherDisplay:10.37,2013-02-07 11:43:00,
2013-02-07 06:48:00,15.2,11.2,30.47,ESE,123,0.0,0.0,84,0.00,,,0.00,WeatherDisplay:10.37,2013-02-07 11:48:00,
2013-02-07 06:53:00,15.2,11.5,30.46,ESE,122,0.0,0.0,85,0.00,,,0.00,WeatherDisplay:10.37,2013-02-07 11:53:00,
2013-02-07 06:58:00,15.1,11.1,30.46,ESE,122,0.0,0.0,84,0.00,,,0.00,WeatherDisplay:10.37,2013-02-07 11:58:00,
2013-02-07 07:03:00,14.9,10.9,30.46,ESE,122,0.0,0.0,84,0.00,CLR,,0.00,WeatherDisplay:10.37,2013-02-07 12:03:00,
2013-02-07 07:08:00,14.8,10.8,30.46,ESE,123,0.0,0.0,84,0.00,CLR,,0.00,WeatherDisplay:10.37,2013-02-07 12:08:00,
2013-02-07 07:13:00,14.6,10.6,30.46,ESE,122,0.0,0.0,84,0.00,CLR,,0.00,WeatherDisplay:10.37,2013-02-07 12:13:00,
2013-02-07 07:18:00,14.4,10.4,30.46,ESE,122,0.0,0.0,84,0.00,CLR,,0.00,WeatherDisplay:10.37,2013-02-07 12:18:00,
2013-02-07 07:23:00,14.1,10.2,30.47,ESE,122,0.0,0.0,84,0.00,CLR,,0.00,WeatherDisplay:10.37,2013-02-07 12:23:00,
2013-02-07 07:28:00,13.8,9.9,30.47,ESE,122,0.0,0.0,84,0.00,CLR,,0.00,WeatherDisplay:10.37,2013-02-07 12:28:00,
2013-02-07 07:33:00,13.6,9.9,30.47,ESE,122,0.0,0.0,85,0.00,CLR,,0.00,WeatherDisplay:10.37,2013-02-07 12:33:00,
2013-02-07 07:38:00,13.5,9.8,30.47,ESE,122,0.0,0.0,85,0.00,CLR,,0.00,WeatherDisplay:10.37,2013-02-07 12:38:00,
2013-02-07 07:43:00,13.5,9.8,30.48,ESE,122,0.0,0.0,85,0.00,CLR,,0.00,WeatherDisplay:10.37,2013-02-07 12:43:00,
2013-02-07 07:48:00,13.4,9.7,30.48,ESE,122,0.0,0.0,85,0.00,CLR,,0.00,WeatherDisplay:10.37,2013-02-07 12:48:00,
2013-02-07 07:53:00,13.5,9.8,30.48,ESE,122,0.0,0.0,85,0.00,CLR,,0.00,WeatherDisplay:10.37,2013-02-07 12:53:00,
2013-02-07 07:58:00,13.6,9.9,30.49,ESE,122,0.0,0.0,85,0.00,CLR,,0.00,WeatherDisplay:10.37,2013-02-07 12:58:00,
2013-02-07 08:03:00,13.7,10.0,30.49,ESE,122,0.0,0.0,85,0.00,CLR,,0.00,WeatherDisplay:10.37,2013-02-07 13:03:00,
2013-02-07 08:08:00,14.0,10.1,30.49,SE,124,0.0,0.0,84,0.00,CLR,,0.00,WeatherDisplay:10.37,2013-02-07 13:08:00,
2013-02-07 08:13:00,14.2,10.3,30.49,SE,124,0.0,0.0,84,0.00,CLR,,0.00,WeatherDisplay:10.37,2013-02-07 13:13:00,
2013-02-07 08:18:00,14.5,10.8,30.49,SE,124,0.0,0.0,85,0.00,CLR,,0.00,WeatherDisplay:10.37,2013-02-07 13:18:00,
2013-02-07 08:23:00,15.0,11.3,30.50,SE,124,0.0,0.0,85,0.00,CLR,,0.00,WeatherDisplay:10.37,2013-02-07 13:23:00,
2013-02-07 08:28:00,15.6,11.6,30.50,SE,124,0.0,0.0,84,0.00,CLR,,0.00,WeatherDisplay:10.37,2013-02-07 13:28:00,
2013-02-07 08:33:00,16.3,11.8,30.50,SE,132,0.0,0.0,82,0.00,CLR,,0.00,WeatherDisplay:10.37,2013-02-07 13:33:00,
2013-02-07 08:38:00,16.8,11.4,30.50,East,98,2.0,2.0,79,0.00,CLR,,0.00,WeatherDisplay:10.37,2013-02-07 13:38:00,
2013-02-07 08:43:00,17.2,11.2,30.50,ESE,116,1.1,1.1,77,0.00,CLR,,0.00,WeatherDisplay:10.37,2013-02-07 13:43:00,
2013-02-07 08:48:00,17.6,11.6,30.50,ESE,115,1.1,1.1,77,0.00,CLR,,0.00,WeatherDisplay:10.37,2013-02-07 13:48:00,
2013-02-07 08:53:00,18.0,12.0,30.50,ESE,109,2.3,2.3,77,0.00,CLR,,0.00,WeatherDisplay:10.37,2013-02-07 13:53:00,
2013-02-07 08:58:00,18.2,11.9,30.50,East,101,3.5,3.5,76,0.00,CLR,,0.00,WeatherDisplay:10.37,2013-02-07 13:58:00,
2013-02-07 09:03:00,18.5,12.2,30.50,ESE,118,1.1,1.1,76,0.00,CLR,,0.00,WeatherDisplay:10.37,2013-02-07 14:03:00,
2013-02-07 09:08:00,19.0,13.0,30.50,SE,136,0.0,0.0,77,0.00,CLR,,0.00,WeatherDisplay:10.37,2013-02-07 14:08:00,
2013-02-07 09:13:00,19.4,13.1,30.50,SE,138,2.3,2.3,76,0.00,CLR,,0.00,WeatherDisplay:10.37,2013-02-07 14:13:00,
2013-02-07 09:18:00,19.8,13.5,30.50,ESE,112,2.3,2.3,76,0.00,CLR,,0.00,WeatherDisplay:10.37,2013-02-07 14:18:00,
2013-02-07 09:23:00,20.1,13.4,30.50,SE,132,1.1,1.1,75,0.00,CLR,,0.00,WeatherDisplay:10.37,2013-02-07 14:23:00,
2013-02-07 09:28:00,20.4,13.7,30.50,ENE,75,3.5,3.5,75,0.00,CLR,,0.00,WeatherDisplay:10.37,2013-02-07 14:28:00,
2013-02-07 09:33:00,20.8,13.8,30.50,SE,128,2.3,2.3,74,0.00,CLR,,0.00,WeatherDisplay:10.37,2013-02-07 14:33:00,
2013-02-07 09:38:00,21.2,14.2,30.50,East,101,3.0,3.0,74,0.00,CLR,,0.00,WeatherDisplay:10.37,2013-02-07 14:38:00,
2013-02-07 09:43:00,21.4,13.8,30.49,ESE,120,3.5,3.5,72,0.00,CLR,,0.00,WeatherDisplay:10.37,2013-02-07 14:43:00,
2013-02-07 09:48:00,21.9,14.3,30.49,SE,142,3.5,3.5,72,0.00,CLR,,0.00,WeatherDisplay:10.37,2013-02-07 14:48:00,
2013-02-07 09:53:00,22.0,13.7,30.49,East,98,2.3,2.3,70,0.00,CLR,,0.00,WeatherDisplay:10.37,2013-02-07 14:53:00,
2013-02-07 09:58:00,22.1,13.5,30.49,ESE,110,3.5,3.5,69,0.00,CLR,,0.00,WeatherDisplay:10.37,2013-02-07 14:58:00,
2013-02-07 10:03:00,22.5,14.2,30.49,SE,126,3.0,3.0,70,0.00,CLR,,0.00,WeatherDisplay:10.37,2013-02-07 15:03:00,
2013-02-07 10:08:00,22.5,13.5,30.49,ESE,113,2.3,2.3,68,0.00,CLR,,0.00,WeatherDisplay:10.37,2013-02-07 15:08:00,
2013-02-07 10:13:00,22.6,14.0,30.49,East,97,2.3,2.3,69,0.00,CLR,,0.00,WeatherDisplay:10.37,2013-02-07 15:13:00,
2013-02-07 10:18:00,22.7,14.1,30.48,ESE,117,1.1,1.1,69,0.00,CLR,,0.00,WeatherDisplay:10.37,2013-02-07 15:18:00,
2013-02-07 10:24:00,23.0,13.3,30.48,SE,131,5.0,5.0,66,0.00,CLR,,0.00,WeatherDisplay:10.37,2013-02-07 15:24:00,
2013-02-07 10:29:00,23.3,13.6,30.48,South,170,2.3,2.3,66,0.00,CLR,,0.00,WeatherDisplay:10.37,2013-02-07 15:29:00,
2013-02-07 10:34:00,23.8,14.1,30.48,East,89,1.1,1.1,66,0.00,CLR,,0.00,WeatherDisplay:10.37,2013-02-07 15:34:00,
2013-02-07 10:39:00,24.0,13.6,30.48,ESE,113,3.5,3.5,64,0.00,CLR,,0.00,WeatherDisplay:10.37,2013-02-07 15:39:00,
2013-02-07 10:44:00,24.3,13.5,30.48,ESE,109,3.5,3.5,63,0.00,CLR,,0.00,WeatherDisplay:10.37,2013-02-07 15:44:00,
2013-02-07 10:49:00,24.6,14.1,30.47,South,172,3.5,3.5,64,0.00,CLR,,0.00,WeatherDisplay:10.37,2013-02-07 15:49:00,
2013-02-07 10:54:00,24.8,13.6,30.47,SSW,203,3.5,3.5,62,0.00,CLR,,0.00,WeatherDisplay:10.37,2013-02-07 15:54:00,
2013-02-07 10:59:00,24.8,14.0,30.47,ESE,103,3.5,3.5,63,0.00,CLR,,0.00,WeatherDisplay:10.37,2013-02-07 15:59:00,
2013-02-07 11:04:00,24.5,13.3,30.46,SE,124,6.9,6.9,62,0.00,CLR,,0.00,WeatherDisplay:10.37,2013-02-07 16:04:00,
2013-02-07 11:09:00,24.2,13.4,30.46,ESE,111,4.6,4.6,63,0.00,CLR,,0.00,WeatherDisplay:10.37,2013-02-07 16:09:00,
2013-02-07 11:14:00,24.2,13.8,30.46,SE,137,3.5,3.5,64,0.00,CLR,,0.00,WeatherDisplay:10.37,2013-02-07 16:14:00,
2013-02-07 11:19:00,24.2,13.8,30.46,ENE,78,6.9,6.9,64,0.00,CLR,,0.00,WeatherDisplay:10.37,2013-02-07 16:19:00,
2013-02-07 11:24:00,24.3,13.9,30.46,SE,131,3.5,3.5,64,0.00,CLR,,0.00,WeatherDisplay:10.37,2013-02-07 16:24:00,
2013-02-07 11:29:00,24.5,14.1,30.46,ESE,117,4.6,4.6,64,0.00,CLR,,0.00,WeatherDisplay:10.37,2013-02-07 16:29:00,
2013-02-07 11:34:00,24.6,13.8,30.45,SE,145,5.8,5.8,63,0.00,CLR,,0.00,WeatherDisplay:10.37,2013-02-07 16:34:00,
2013-02-07 11:39:00,25.1,14.6,30.45,SSE,148,4.6,4.6,64,0.00,CLR,,0.00,WeatherDisplay:10.37,2013-02-07 16:39:00,
2013-02-07 11:44:00,25.3,14.1,30.45,ESE,111,3.5,3.5,62,0.00,CLR,,0.00,WeatherDisplay:10.37,2013-02-07 16:44:00,
2013-02-07 11:49:00,25.3,13.7,30.44,ESE,120,2.3,2.3,61,0.00,CLR,,0.00,WeatherDisplay:10.37,2013-02-07 16:49:00,
2013-02-07 11:54:00,25.1,13.5,30.44,East,90,3.5,3.5,61,0.00,CLR,,0.00,WeatherDisplay:10.37,2013-02-07 16:54:00,
2013-02-07 11:59:00,25.2,13.6,30.43,ESE,119,4.6,4.6,61,0.00,CLR,,0.00,WeatherDisplay:10.37,2013-02-07 16:59:00,
2013-02-07 12:04:00,25.3,13.7,30.43,East,84,5.8,5.8,61,0.00,CLR,,0.00,WeatherDisplay:10.37,2013-02-07 17:04:00,
2013-02-07 12:09:00,25.4,13.8,30.42,ESE,122,4.0,4.0,61,0.00,CLR,,0.00,WeatherDisplay:10.37,2013-02-07 17:09:00,
2013-02-07 12:14:00,26.2,14.9,30.42,East,87,3.5,3.5,62,0.00,CLR,,0.00,WeatherDisplay:10.37,2013-02-07 17:14:00,
2013-02-07 12:19:00,26.8,14.4,30.42,SSE,155,6.9,6.9,59,0.00,CLR,,0.00,WeatherDisplay:10.37,2013-02-07 17:19:00,
2013-02-07 12:24:00,26.7,13.9,30.41,SE,135,3.5,3.5,58,0.00,CLR,,0.00,WeatherDisplay:10.37,2013-02-07 17:24:00,
2013-02-07 12:29:00,26.7,14.3,30.41,ESE,102,4.6,4.6,59,0.00,CLR,,0.00,WeatherDisplay:10.37,2013-02-07 17:29:00,
2013-02-07 12:34:00,27.1,14.7,30.41,ESE,108,5.0,5.0,59,0.00,CLR,,0.00,WeatherDisplay:10.37,2013-02-07 17:34:00,
2013-02-07 12:39:00,27.3,14.8,30.40,SE,146,4.6,4.6,59,0.00,CLR,,0.00,WeatherDisplay:10.37,2013-02-07 17:39:00,
2013-02-07 12:44:00,27.1,14.3,30.40,East,81,3.5,3.5,58,0.00,CLR,,0.00,WeatherDisplay:10.37,2013-02-07 17:44:00,
2013-02-07 12:49:00,27.1,14.3,30.40,NNE,23,10.4,10.4,58,0.00,CLR,,0.00,WeatherDisplay:10.37,2013-02-07 17:49:00,
2013-02-07 12:54:00,27.4,14.9,30.39,SE,138,3.5,3.5,59,0.00,CLR,,0.00,WeatherDisplay:10.37,2013-02-07 17:54:00,
2013-02-07 12:59:00,27.2,14.0,30.39,ESE,108,6.9,6.9,57,0.00,CLR,,0.00,WeatherDisplay:10.37,2013-02-07 17:59:00,
2013-02-07 13:04:00,27.4,15.3,30.39,SSE,148,3.5,3.5,60,0.00,CLR,,0.00,WeatherDisplay:10.37,2013-02-07 18:04:00,
2013-02-07 13:09:00,27.8,15.7,30.39,East,88,3.5,3.5,60,0.00,CLR,,0.00,WeatherDisplay:10.37,2013-02-07 18:09:00,
2013-02-07 13:14:00,28.2,15.3,30.39,SE,146,3.5,3.5,58,0.00,CLR,,0.00,WeatherDisplay:10.37,2013-02-07 18:14:00,
2013-02-07 13:19:00,28.2,15.3,30.39,SE,132,3.5,3.5,58,0.00,CLR,,0.00,WeatherDisplay:10.37,2013-02-07 18:19:00,
2013-02-07 13:24:00,28.0,15.1,30.39,ESE,117,3.5,3.5,58,0.00,CLR,,0.00,WeatherDisplay:10.37,2013-02-07 18:24:00,
2013-02-07 13:29:00,27.8,15.3,30.38,SE,132,4.0,4.0,59,0.00,CLR,,0.00,WeatherDisplay:10.37,2013-02-07 18:29:00,
2013-02-07 13:34:00,27.7,14.8,30.38,East,89,5.8,5.8,58,0.00,CLR,,0.00,WeatherDisplay:10.37,2013-02-07 18:34:00,
2013-02-07 13:39:00,27.8,14.9,30.38,SE,126,3.5,3.5,58,0.00,CLR,,0.00,WeatherDisplay:10.37,2013-02-07 18:39:00,
2013-02-07 13:44:00,27.8,14.9,30.37,East,80,5.8,5.8,58,0.00,CLR,,0.00,WeatherDisplay:10.37,2013-02-07 18:44:00,
2013-02-07 13:49:00,27.8,14.9,30.37,ESE,120,5.8,5.8,58,0.00,CLR,,0.00,WeatherDisplay:10.37,2013-02-07 18:49:00,
2013-02-07 13:54:00,28.2,15.7,30.36,SSE,155,2.3,2.3,59,0.00,CLR,,0.00,WeatherDisplay:10.37,2013-02-07 18:54:00,
2013-02-07 13:59:00,28.4,15.9,30.36,SSW,204,3.5,3.5,59,0.00,CLR,,0.00,WeatherDisplay:10.37,2013-02-07 18:59:00,
2013-02-07 14:04:00,28.7,16.6,30.36,ENE,75,3.0,3.0,60,0.00,CLR,,0.00,WeatherDisplay:10.37,2013-02-07 19:04:00,
2013-02-07 14:10:00,28.7,16.2,30.36,ENE,77,4.6,4.6,59,0.00,CLR,,0.00,WeatherDisplay:10.37,2013-02-07 19:10:00,
2013-02-07 14:15:00,28.6,16.1,30.36,ESE,111,2.3,2.3,59,0.00,CLR,,0.00,WeatherDisplay:10.37,2013-02-07 19:15:00,
2013-02-07 14:20:00,29.0,16.4,30.36,ENE,75,1.1,1.3,59,0.00,CLR,,0.00,WeatherDisplay:10.37,2013-02-07 19:20:00,
2013-02-07 14:25:00,29.0,16.4,30.35,ESE,112,3.5,3.5,59,0.00,CLR,,0.00,WeatherDisplay:10.37,2013-02-07 19:25:00,
2013-02-07 14:30:00,29.1,16.5,30.35,NE,47,2.3,2.3,59,0.00,CLR,,0.00,WeatherDisplay:10.37,2013-02-07 19:30:00,
2013-02-07 14:35:00,29.0,15.7,30.35,SE,127,3.5,3.5,57,0.00,CLR,,0.00,WeatherDisplay:10.37,2013-02-07 19:35:00,
2013-02-07 14:40:00,28.9,15.6,30.35,East,86,3.5,3.5,57,0.00,CLR,,0.00,WeatherDisplay:10.37,2013-02-07 19:40:00,
2013-02-07 14:45:00,28.8,15.1,30.34,South,177,10.4,10.4,56,0.00,CLR,,0.00,WeatherDisplay:10.37,2013-02-07 19:45:00,
2013-02-07 14:50:00,28.7,15.0,30.34,ESE,112,6.0,6.0,56,0.00,CLR,,0.00,WeatherDisplay:10.37,2013-02-07 19:50:00,
2013-02-07 14:55:00,28.8,15.1,30.34,ESE,115,4.6,4.6,56,0.00,CLR,,0.00,WeatherDisplay:10.37,2013-02-07 19:55:00,
2013-02-07 15:00:00,28.6,14.9,30.34,SE,139,4.0,4.0,56,0.00,CLR,,0.00,WeatherDisplay:10.37,2013-02-07 20:00:00,
2013-02-07 15:05:00,28.6,14.9,30.34,ENE,65,9.2,9.2,56,0.00,CLR,,0.00,WeatherDisplay:10.37,2013-02-07 20:05:00,
2013-02-07 15:10:00,28.9,15.6,30.34,SE,146,7.0,7.0,57,0.00,CLR,,0.00,WeatherDisplay:10.37,2013-02-07 20:10:00,
2013-02-07 15:15:00,28.9,14.7,30.33,East,98,5.8,5.8,55,0.00,CLR,,0.00,WeatherDisplay:10.37,2013-02-07 20:15:00,
2013-02-07 15:20:00,29.2,15.0,30.33,South,180,3.5,3.5,55,0.00,CLR,,0.00,WeatherDisplay:10.37,2013-02-07 20:20:00,
2013-02-07 15:25:00,29.3,15.1,30.33,ESE,118,3.5,3.5,55,0.00,CLR,,0.00,WeatherDisplay:10.37,2013-02-07 20:25:00,
2013-02-07 15:30:00,29.3,15.5,30.33,East,83,2.3,2.3,56,0.00,CLR,,0.00,WeatherDisplay:10.37,2013-02-07 20:30:00,
2013-02-07 15:35:00,29.0,14.8,30.33,East,90,2.3,2.3,55,0.00,CLR,,0.00,WeatherDisplay:10.37,2013-02-07 20:35:00,
2013-02-07 15:40:00,28.8,15.5,30.32,ESE,108,3.5,3.5,57,0.00,CLR,,0.00,WeatherDisplay:10.37,2013-02-07 20:40:00,
2013-02-07 15:45:00,28.8,15.5,30.32,ESE,115,2.3,2.3,57,0.00,CLR,,0.00,WeatherDisplay:10.37,2013-02-07 20:45:00,
2013-02-07 15:50:00,28.8,14.6,30.32,ENE,78,5.0,5.0,55,0.00,CLR,,0.00,WeatherDisplay:10.37,2013-02-07 20:50:00,
2013-02-07 15:55:00,28.8,15.1,30.32,NE,52,2.3,2.3,56,0.00,CLR,,0.00,WeatherDisplay:10.37,2013-02-07 20:55:00,
2013-02-07 16:00:00,28.8,15.1,30.32,East,100,2.3,2.3,56,0.00,CLR,,0.00,WeatherDisplay:10.37,2013-02-07 21:00:00,
2013-02-07 16:05:00,28.7,15.0,30.32,East,85,3.5,3.5,56,0.00,CLR,,0.00,WeatherDisplay:10.37,2013-02-07 21:05:00,
2013-02-07 16:10:00,28.8,15.9,30.31,ENE,76,2.3,2.3,58,0.00,CLR,,0.00,WeatherDisplay:10.37,2013-02-07 21:10:00,
2013-02-07 16:15:00,28.6,15.3,30.32,SSE,158,2.3,2.3,57,0.00,CLR,,0.00,WeatherDisplay:10.37,2013-02-07 21:15:00,
2013-02-07 16:20:00,28.5,15.2,30.32,ENE,60,2.3,2.3,57,0.00,CLR,,0.00,WeatherDisplay:10.37,2013-02-07 21:20:00,
2013-02-07 16:25:00,28.3,14.6,30.32,SE,134,2.3,2.3,56,0.00,CLR,,0.00,WeatherDisplay:10.37,2013-02-07 21:25:00,
2013-02-07 16:30:00,28.2,14.5,30.31,ESE,121,3.5,3.5,56,0.00,CLR,,0.00,WeatherDisplay:10.37,2013-02-07 21:30:00,
2013-02-07 16:35:00,28.0,14.7,30.31,NNE,17,3.5,3.5,57,0.00,CLR,,0.00,WeatherDisplay:10.37,2013-02-07 21:35:00,
2013-02-07 16:40:00,27.8,14.5,30.32,ESE,117,3.5,3.5,57,0.00,CLR,,0.00,WeatherDisplay:10.37,2013-02-07 21:40:00,
2013-02-07 16:45:00,27.6,14.7,30.32,ENE,70,4.6,4.6,58,0.00,CLR,,0.00,WeatherDisplay:10.37,2013-02-07 21:45:00,
2013-02-07 16:50:00,27.5,15.0,30.31,East,94,4.6,4.6,59,0.00,CLR,,0.00,WeatherDisplay:10.37,2013-02-07 21:50:00,
2013-02-07 16:55:00,27.4,14.5,30.32,ESE,120,3.5,3.5,58,0.00,CLR,,0.00,WeatherDisplay:10.37,2013-02-07 21:55:00,
2013-02-07 17:00:00,27.4,14.5,30.31,NE,34,2.3,2.3,58,0.00,CLR,,0.00,WeatherDisplay:10.37,2013-02-07 22:00:00,
2013-02-07 17:05:00,27.4,15.3,30.31,SSE,153,1.1,1.1,60,0.00,CLR,,0.00,WeatherDisplay:10.37,2013-02-07 22:05:00,
2013-02-07 17:10:00,27.3,15.2,30.31,East,95,3.5,3.5,60,0.00,CLR,,0.00,WeatherDisplay:10.37,2013-02-07 22:10:00,
2013-02-07 17:15:00,27.1,15.0,30.31,SSE,155,1.1,0.0,60,0.00,CLR,,0.00,WeatherDisplay:10.37,2013-02-07 22:15:00,
2013-02-07 17:20:00,27.0,15.3,30.31,SE,133,2.3,2.3,61,0.00,CLR,,0.00,WeatherDisplay:10.37,2013-02-07 22:20:00,
2013-02-07 17:25:00,26.8,14.4,30.31,SE,127,3.5,3.5,59,0.00,CLR,,0.00,WeatherDisplay:10.37,2013-02-07 22:25:00,
2013-02-07 17:30:00,26.7,14.7,30.31,ESE,103,2.3,2.3,60,0.00,CLR,,0.00,WeatherDisplay:10.37,2013-02-07 22:30:00,
2013-02-07 17:35:00,26.6,15.7,30.31,ESE,117,1.1,1.1,63,0.00,CLR,,0.00,WeatherDisplay:10.37,2013-02-07 22:35:00,
2013-02-07 17:40:00,26.5,14.9,30.31,SE,134,3.5,3.5,61,0.00,CLR,,0.00,WeatherDisplay:10.37,2013-02-07 22:40:00,
2013-02-07 17:45:00,26.5,14.9,30.31,ENE,71,4.0,4.0,61,0.00,CLR,,0.00,WeatherDisplay:10.37,2013-02-07 22:45:00,
2013-02-07 17:51:00,26.4,14.8,30.31,SE,141,2.3,2.3,61,0.00,CLR,,0.00,WeatherDisplay:10.37,2013-02-07 22:51:00,
2013-02-07 17:56:00,26.4,14.8,30.30,East,100,3.5,3.5,61,0.00,CLR,,0.00,WeatherDisplay:10.37,2013-02-07 22:56:00,
2013-02-07 18:01:00,26.4,14.8,30.30,ESE,102,2.0,2.0,61,0.00,,,0.00,WeatherDisplay:10.37,2013-02-07 23:01:00,
2013-02-07 18:06:00,26.3,14.3,30.30,ESE,107,3.0,3.0,60,0.00,,,0.00,WeatherDisplay:10.37,2013-02-07 23:06:00,
2013-02-07 18:11:00,26.3,14.7,30.31,ESE,107,1.1,1.1,61,0.00,,,0.00,WeatherDisplay:10.37,2013-02-07 23:11:00,
2013-02-07 18:16:00,26.3,14.3,30.31,ESE,114,4.6,4.6,60,0.00,,,0.00,WeatherDisplay:10.37,2013-02-07 23:16:00,
2013-02-07 18:21:00,26.3,14.7,30.30,ESE,113,1.1,1.1,61,0.00,,,0.00,WeatherDisplay:10.37,2013-02-07 23:21:00,
2013-02-07 18:26:00,26.3,15.0,30.30,SE,142,1.1,1.1,62,0.00,,,0.00,WeatherDisplay:10.37,2013-02-07 23:26:00,
2013-02-07 18:31:00,26.2,14.6,30.30,WSW,239,1.1,1.1,61,0.00,,,0.00,WeatherDisplay:10.37,2013-02-07 23:31:00,
2013-02-07 18:36:00,26.2,14.6,30.30,SE,137,3.5,3.5,61,0.00,,,0.00,WeatherDisplay:10.37,2013-02-07 23:36:00,
2013-02-07 18:41:00,26.3,15.0,30.30,SE,141,2.3,2.3,62,0.00,,,0.00,WeatherDisplay:10.37,2013-02-07 23:41:00,
2013-02-07 18:46:00,26.2,14.2,30.30,ESE,110,3.5,3.5,60,0.00,,,0.00,WeatherDisplay:10.37,2013-02-07 23:46:00,
2013-02-07 18:51:00,26.2,14.6,30.30,East,100,3.5,3.5,61,0.00,,,0.00,WeatherDisplay:10.37,2013-02-07 23:51:00,
2013-02-07 18:56:00,26.2,14.9,30.30,ESE,105,4.6,4.6,62,0.00,,,0.00,WeatherDisplay:10.37,2013-02-07 23:56:00,
2013-02-07 19:01:00,26.2,14.6,30.29,ESE,102,3.5,3.5,61,0.00,,,0.00,WeatherDisplay:10.37,2013-02-08 00:01:00,
2013-02-07 19:06:00,26.1,14.5,30.29,East,97,1.1,1.1,61,0.00,,,0.00,WeatherDisplay:10.37,2013-02-08 00:06:00,
2013-02-07 19:11:00,26.1,14.8,30.29,East,85,2.3,2.3,62,0.00,,,0.00,WeatherDisplay:10.37,2013-02-08 00:11:00,
2013-02-07 19:16:00,26.1,15.2,30.29,SSE,149,4.6,4.6,63,0.00,,,0.00,WeatherDisplay:10.37,2013-02-08 00:16:00,
2013-02-07 19:21:00,26.1,15.2,30.29,ESE,116,2.3,2.3,63,0.00,,,0.00,WeatherDisplay:10.37,2013-02-08 00:21:00,
2013-02-07 19:26:00,26.0,15.1,30.28,SE,138,1.1,1.1,63,0.00,,,0.00,WeatherDisplay:10.37,2013-02-08 00:26:00,
2013-02-07 19:31:00,26.0,15.5,30.29,ENE,70,4.0,4.0,64,0.00,,,0.00,WeatherDisplay:10.37,2013-02-08 00:31:00,
2013-02-07 19:36:00,26.0,14.8,30.28,East,98,2.0,2.0,62,0.00,,,0.00,WeatherDisplay:10.37,2013-02-08 00:36:00,
2013-02-07 19:41:00,26.0,15.1,30.28,SSW,204,2.3,2.3,63,0.00,,,0.00,WeatherDisplay:10.37,2013-02-08 00:41:00,
2013-02-07 19:46:00,25.9,15.4,30.28,ESE,114,1.1,1.1,64,0.00,,,0.00,WeatherDisplay:10.37,2013-02-08 00:46:00,
2013-02-07 19:51:00,25.9,15.7,30.27,SSW,194,2.3,2.3,65,0.00,,,0.00,WeatherDisplay:10.37,2013-02-08 00:51:00,
2013-02-07 19:56:00,25.9,15.4,30.27,SE,127,3.5,3.5,64,0.00,,,0.00,WeatherDisplay:10.37,2013-02-08 00:56:00,
2013-02-07 20:01:00,25.9,15.4,30.28,ESE,109,2.3,2.3,64,0.00,,,0.00,WeatherDisplay:10.37,2013-02-08 01:01:00,
2013-02-07 20:06:00,25.9,15.4,30.27,ESE,121,3.5,3.5,64,0.00,,,0.00,WeatherDisplay:10.37,2013-02-08 01:06:00,
2013-02-07 20:11:00,25.9,15.7,30.27,ENE,65,2.3,2.3,65,0.00,,,0.00,WeatherDisplay:10.37,2013-02-08 01:11:00,
2013-02-07 20:16:00,25.9,15.4,30.27,East,98,3.5,3.5,64,0.00,,,0.00,WeatherDisplay:10.37,2013-02-08 01:16:00,
2013-02-07 20:21:00,25.9,15.7,30.27,ESE,114,2.3,2.3,65,0.00,,,0.00,WeatherDisplay:10.37,2013-02-08 01:21:00,
2013-02-07 20:26:00,25.9,16.1,30.26,ESE,113,3.5,3.5,66,0.00,,,0.00,WeatherDisplay:10.37,2013-02-08 01:26:00,
2013-02-07 20:31:00,25.9,15.7,30.26,SE,125,3.5,3.5,65,0.00,,,0.00,WeatherDisplay:10.37,2013-02-08 01:31:00,
2013-02-07 20:37:00,25.9,15.7,30.26,SE,129,2.3,2.3,65,0.00,,,0.00,WeatherDisplay:10.37,2013-02-08 01:37:00,
2013-02-07 20:42:00,25.9,16.1,30.26,SSE,155,5.8,5.8,66,0.00,,,0.00,WeatherDisplay:10.37,2013-02-08 01:42:00,
2013-02-07 20:47:00,25.9,16.4,30.26,ESE,122,2.3,2.3,67,0.00,,,0.00,WeatherDisplay:10.37,2013-02-08 01:47:00,
2013-02-07 20:52:00,25.9,15.7,30.26,South,185,3.5,3.5,65,0.00,,,0.00,WeatherDisplay:10.37,2013-02-08 01:52:00,
2013-02-07 20:57:00,26.0,16.5,30.26,SE,125,4.6,4.6,67,0.00,,,0.00,WeatherDisplay:10.37,2013-02-08 01:57:00,
2013-02-07 21:02:00,26.0,16.2,30.26,ESE,102,4.6,4.6,66,0.00,,,0.00,WeatherDisplay:10.37,2013-02-08 02:02:00,
2013-02-07 21:07:00,26.0,16.5,30.26,ESE,114,3.5,3.5,67,0.00,,,0.00,WeatherDisplay:10.37,2013-02-08 02:07:00,
2013-02-07 21:12:00,26.0,16.2,30.26,ESE,110,6.9,6.9,66,0.00,,,0.00,WeatherDisplay:10.37,2013-02-08 02:12:00,
2013-02-07 21:17:00,26.1,17.0,30.25,ESE,110,3.5,3.5,68,0.00,,,0.00,WeatherDisplay:10.37,2013-02-08 02:17:00,
2013-02-07 21:22:00,26.1,16.6,30.25,ESE,102,3.5,3.5,67,0.00,,,0.00,WeatherDisplay:10.37,2013-02-08 02:22:00,
2013-02-07 21:27:00,26.1,17.0,30.25,East,87,3.5,3.5,68,0.00,,,0.00,WeatherDisplay:10.37,2013-02-08 02:27:00,
2013-02-07 21:32:00,26.1,17.3,30.25,East,95,3.5,3.5,69,0.00,,,0.00,WeatherDisplay:10.37,2013-02-08 02:32:00,
2013-02-07 21:37:00,26.2,17.1,30.24,East,98,2.3,2.3,68,0.00,,,0.00,WeatherDisplay:10.37,2013-02-08 02:37:00,
2013-02-07 21:42:00,26.2,17.1,30.24,SE,145,1.1,1.1,68,0.00,,,0.00,WeatherDisplay:10.37,2013-02-08 02:42:00,
2013-02-07 21:47:00,26.3,17.8,30.24,SE,146,4.6,4.6,70,0.00,,,0.00,WeatherDisplay:10.37,2013-02-08 02:47:00,
2013-02-07 21:52:00,26.3,18.2,30.23,ESE,103,2.3,2.3,71,0.00,,,0.00,WeatherDisplay:10.37,2013-02-08 02:52:00,
2013-02-07 21:57:00,26.5,18.0,30.23,SE,126,2.3,2.3,70,0.00,,,0.00,WeatherDisplay:10.37,2013-02-08 02:57:00,
2013-02-07 22:02:00,26.6,18.8,30.22,SE,125,2.3,2.3,72,0.00,,,0.00,WeatherDisplay:10.37,2013-02-08 03:02:00,
2013-02-07 22:07:00,26.7,19.2,30.22,SE,145,3.5,3.5,73,0.00,,,0.00,WeatherDisplay:10.37,2013-02-08 03:07:00,
2013-02-07 22:12:00,26.7,19.8,30.22,ESE,114,3.5,3.5,75,0.00,,,0.00,WeatherDisplay:10.37,2013-02-08 03:12:00,
2013-02-07 22:17:00,26.7,20.1,30.21,ESE,103,3.0,3.0,76,0.00,,,0.00,WeatherDisplay:10.37,2013-02-08 03:17:00,
2013-02-07 22:22:00,26.7,20.8,30.21,ESE,113,3.5,3.5,78,0.00,,,0.00,WeatherDisplay:10.37,2013-02-08 03:22:00,
2013-02-07 22:27:00,26.7,21.1,30.21,ESE,108,2.3,2.3,79,0.00,,,0.00,WeatherDisplay:10.37,2013-02-08 03:27:00,
2013-02-07 22:32:00,26.8,21.2,30.20,ESE,121,2.3,2.3,79,0.00,,,0.00,WeatherDisplay:10.37,2013-02-08 03:32:00,
2013-02-07 22:37:00,26.9,21.3,30.20,East,96,3.5,3.5,79,0.00,,,0.00,WeatherDisplay:10.37,2013-02-08 03:37:00,
2013-02-07 22:43:00,27.1,21.2,30.19,SE,124,3.5,3.5,78,0.00,,,0.00,WeatherDisplay:10.37,2013-02-08 03:43:00,
2013-02-07 22:48:00,27.3,21.3,30.19,East,97,3.0,3.0,78,0.00,,,0.00,WeatherDisplay:10.37,2013-02-08 03:48:00,
2013-02-07 22:53:00,27.4,21.1,30.19,ESE,120,2.3,2.3,77,0.00,,,0.00,WeatherDisplay:10.37,2013-02-08 03:53:00,
2013-02-07 22:58:00,27.4,21.1,30.19,ESE,111,1.1,1.1,77,0.00,,,0.00,WeatherDisplay:10.37,2013-02-08 03:58:00,
2013-02-07 23:03:00,27.4,21.1,30.18,SE,146,1.1,1.1,77,0.00,,,0.00,WeatherDisplay:10.37,2013-02-08 04:03:00,
2013-02-07 23:08:00,27.5,21.2,30.18,SE,135,1.1,1.1,77,0.00,,,0.00,WeatherDisplay:10.37,2013-02-08 04:08:00,
2013-02-07 23:13:00,27.6,21.6,30.17,ESE,115,2.3,2.3,78,0.00,,,0.00,WeatherDisplay:10.37,2013-02-08 04:13:00,
2013-02-07 23:18:00,28.7,21.8,30.17,South,183,4.0,4.0,75,0.00,,,0.00,WeatherDisplay:10.37,2013-02-08 04:18:00,
2013-02-07 23:23:00,29.7,21.8,30.17,SE,146,5.8,5.8,72,0.00,,,0.00,WeatherDisplay:10.37,2013-02-08 04:23:00,
2013-02-07 23:28:00,30.6,21.3,30.16,ESE,114,3.5,3.5,68,0.00,,,0.00,WeatherDisplay:10.37,2013-02-08 04:28:00,
2013-02-07 23:33:00,30.8,21.1,30.16,SE,127,3.5,3.5,67,0.00,,,0.00,WeatherDisplay:10.37,2013-02-08 04:33:00,
2013-02-07 23:38:00,31.0,21.0,30.16,East,89,6.9,6.9,66,0.00,,,0.00,WeatherDisplay:10.37,2013-02-08 04:38:00,
2013-02-07 23:43:00,31.2,20.8,30.16,South,172,10.4,10.4,65,0.00,,,0.00,WeatherDisplay:10.37,2013-02-08 04:43:00,
2013-02-07 23:48:00,31.3,20.9,30.15,SSE,152,2.3,2.3,65,0.00,,,0.00,WeatherDisplay:10.37,2013-02-08 04:48:00,
2013-02-07 23:53:00,31.3,20.9,30.15,SE,132,9.2,9.2,65,0.00,,,0.00,WeatherDisplay:10.37,2013-02-08 04:53:00,
2013-02-07 23:58:00,31.3,20.5,30.15,SE,136,2.3,2.3,64,0.00,,,0.00,WeatherDisplay:10.37,2013-02-08 04:58:00,